Pittsburgh Allegheny Co., PA

8:12 AM EDT on May 26, 2018 (GMT -0400)
Allegheny County

Weather History for KAGC - June, 2013

Change the Weather History Date:

Monday, June 3, 2013

  Actual Average Record
Temperature  
Mean Temperature 63 °F -  
Max Temperature 68 °F 71 °F 85 °F (1991)
Min Temperature 54 °F 50 °F 41 °F (1988)
Degree Days  
Heating Degree Days 2    
Growing Degree Days 13 (Base 50)    
Moisture  
Dew Point 52 °F    
Average Humidity 67    
Maximum Humidity 83    
Minimum Humidity 51    
Precipitation  
Precipitation 0.00 in - - ()
Sea Level Pressure  
Sea Level Pressure 29.96 in    
Wind  
Wind Speed 7 mph (NNW)    
Max Wind Speed 12 mph    
Max Gust Speed 17 mph    
Visibility 10 miles    
Events      
Averages and records for this station are not official NWS values.
T = Trace of Precipitation, MM = Missing Value Source: NWS Daily Summary

Daily Weather History Graph

Daily Weather History Graph

Search for Another Location

Airport or City:

Astronomy

Jun. 03, 2013 Rise Set
Actual Time 5:51 AM EDT 8:45 PM EDT
Civil Twilight 5:18 AM EDT 9:17 PM EDT
Nautical Twilight 4:37 AM EDT 9:58 PM EDT
Astronomical Twilight 3:50 AM EDT 10:46 PM EDT
Moon 2:48 AM EDT (6/3) 4:13 PM EDT (6/3)
Length of Visible Light 15h 59m
Length of Day
14h 54m
Waning Crescent, 22% of the Moon is Illuminated
Jun 3
Waning Crescent
Jun 8
New
Jun 16
First Quarter
Jun 23
Full
Jun 30
Last Quarter

Hourly Weather History & Observations

Time (EDT) Temp. Dew Point Humidity Pressure Visibility Wind Dir Wind Speed Gust Speed Precip Events Conditions
12:53 AM 69.1 °F 57.0 °F 65% 29.87 in 10.0 mi North 8.1 mph - N/A   Overcast
1:53 AM 66.9 °F 55.0 °F 66% 29.88 in 10.0 mi NNW 3.5 mph - N/A   Overcast
2:53 AM 64.9 °F 55.0 °F 70% 29.88 in 10.0 mi North 3.5 mph - N/A   Mostly Cloudy
3:53 AM 64.9 °F 55.9 °F 73% 29.89 in 10.0 mi NNW 5.8 mph - N/A   Overcast
4:53 AM 64.0 °F 55.9 °F 75% 29.89 in 10.0 mi NNW 3.5 mph - N/A   Overcast
5:53 AM 63.0 °F 55.9 °F 78% 29.90 in 10.0 mi North 5.8 mph - N/A   Overcast
6:53 AM 61.0 °F 55.9 °F 83% 29.92 in 10.0 mi North 9.2 mph - N/A   Overcast
7:53 AM 61.0 °F 55.0 °F 81% 29.93 in 10.0 mi NNW 10.4 mph - N/A   Overcast
8:53 AM 61.0 °F 54.0 °F 78% 29.95 in 10.0 mi North 8.1 mph - N/A   Overcast
9:53 AM 62.1 °F 54.0 °F 75% 29.96 in 10.0 mi Variable 4.6 mph - N/A   Overcast
10:23 AM 62.6 °F 53.6 °F 72% 29.97 in 10.0 mi NW 8.1 mph - N/A   Overcast
10:53 AM 63.0 °F 53.1 °F 70% 29.98 in 10.0 mi Variable 6.9 mph - N/A   Overcast
11:32 AM 60.8 °F 53.6 °F 77% 29.98 in 10.0 mi NNW 8.1 mph - N/A   Overcast
11:53 AM 62.1 °F 53.1 °F 72% 29.98 in 10.0 mi NW 8.1 mph - N/A   Overcast
12:53 PM 64.9 °F 53.1 °F 65% 29.99 in 10.0 mi NNW 6.9 mph - N/A   Overcast
1:53 PM 64.0 °F 52.0 °F 65% 29.98 in 10.0 mi NNW 11.5 mph 17.3 mph N/A   Overcast
2:53 PM 64.0 °F 52.0 °F 65% 29.98 in 10.0 mi NNW 5.8 mph - N/A   Overcast
3:53 PM 66.9 °F 52.0 °F 59% 29.97 in 10.0 mi NNW 11.5 mph 17.3 mph N/A   Overcast
4:18 PM 64.4 °F 51.8 °F 64% 29.97 in 10.0 mi NNW 9.2 mph - N/A   Overcast
4:42 PM 64.4 °F 51.8 °F 64% 29.97 in 10.0 mi Variable 4.6 mph - N/A   Overcast
4:53 PM 64.0 °F 51.1 °F 63% 29.98 in 10.0 mi NW 6.9 mph - N/A   Overcast
5:12 PM 62.6 °F 51.8 °F 68% 29.97 in 10.0 mi WNW 4.6 mph - N/A   Overcast
5:53 PM 64.0 °F 52.0 °F 65% 29.96 in 10.0 mi WNW 4.6 mph - N/A   Mostly Cloudy
6:53 PM 66.9 °F 52.0 °F 59% 29.96 in 10.0 mi Calm Calm - N/A   Mostly Cloudy
7:53 PM 64.9 °F 48.0 °F 54% 29.99 in 10.0 mi NNW 6.9 mph - N/A   Scattered Clouds
8:53 PM 61.0 °F 43.0 °F 52% 30.01 in 10.0 mi NNW 3.5 mph - N/A   Clear
9:53 PM 57.9 °F 42.1 °F 56% 30.04 in 10.0 mi NNW 8.1 mph - N/A   Clear
10:53 PM 57.0 °F 39.0 °F 51% 30.06 in 10.0 mi NNW 10.4 mph - N/A   Clear
11:53 PM 54.0 °F 37.9 °F 55% 30.08 in 10.0 mi NNW 9.2 mph 17.3 mph N/A   Clear